Location: Kerb�bon
(47.7970°N, 3.3487°W)
Time: 12:39:17
(UTC+00:00)

Cosmos 2084 - Pass Details

Date: 12 May 2021
Orbit: 542 x 640 km, 62.8° (Epoch: 18 June)

Event Time Altitude Azimuth Distance (km) Brightness Sun altitude
Rises 20:07:45 0° 197° (SSW) 2,701 6.7 -4.6°
Reaches altitude 10° 20:10:03 10° 188° (S) 1,821 5.7 -4.9°
Maximum altitude 20:13:47 35° 122° (ESE) 908 3.9 -5.5°
Drops below altitude 10° 20:17:38 10° 56° (NE) 1,878 5.8 -6.0°
Sets 20:20:02 0° 48° (NE) 2,797 6.8 -6.3°
